STARLINK-38091

Last updated on Sun Aug 09 2026 00:02:04 GMT+0000 (Coordinated Universal Time)

1 69997U 26159Y 26220.51123766 .00123769 00000+0 81725-3 0 9999 2 69997 97.2832 60.5746 0002285 115.4627 244.6874 15.75229403 5709
UTC large
Height (km)
Speed (km/s)
/
Latitude / Longitude
Inclination (degrees)
Orbital Period (minutes)
Azimuth
Elevation
Range (km)
Doppler Factor

Next 0 passes for location: London (51.5072 / 0.1276)

No passes found over London.
STARLINK-38091